contact:dominique.lefevre@mio.osupytheas.fr, maurice.libes@osupytheas.fr, didier.mallarino@osupytheas.fr
Project:EMSO http://www.emso-fr.org/EMSO-France
Depth: 2436.0 m
Title:EMSO Ligure Ouest : Data MII capteur AQUADOPP
Date,Latitude,Longitude,X_East,Y_North,Z_Up,Amplitude_X,Amplitude_Y,Amplitude_Z,Batterie,SoundSpeed,Heading,Pitch,Roll,Pressure,TIS,Speed,Direction
, degrees North, degrees East, m.s-1, m.s-1,m.s-1, 1, 1, 1, Volt, m.s-1, degree, degree, degree, dbar, degree_C, m.s-1, degree
2019-10-08T00:04:04,42.805,6.029,-0.021,-0.029,-0.036,104.0,105.0,100.0,13.4,1505.1,325.8,-0.8,1.8,2470.419,13.27,0.035,215.9
2019-10-08T00:07:05,42.805,6.029,-0.005,-0.037,-0.003,104.0,105.0,101.0,13.4,1505.2,325.3,-0.8,1.8,2470.264,13.29,0.037,187.7
2019-10-08T00:10:06,42.805,6.029,-0.017,-0.009,-0.018,104.0,104.0,100.0,13.3,1505.2,327.4,-0.7,1.8,2470.121,13.3,0.019,242.1
2019-10-08T00:13:07,42.805,6.029,-0.012,-0.058,-0.054,105.0,103.0,99.0,13.4,1505.3,326.5,-0.7,1.8,2469.992,13.31,0.059,191.7
2019-10-08T00:16:08,42.805,6.029,-0.006,-0.024,0.007,104.0,106.0,100.0,13.4,1505.3,326.0,-0.7,1.8,2469.923,13.32,0.024,194.0
2019-10-08T00:19:09,42.805,6.029,-0.024,-0.024,-0.022,104.0,106.0,99.0,13.3,1505.3,327.2,-0.7,1.9,2469.832,13.32,0.033,225.0
2019-10-08T00:22:10,42.805,6.029,-0.026,-0.012,-0.021,103.0,105.0,100.0,13.4,1505.3,324.1,-0.7,1.8,2469.875,13.32,0.028,245.2
2019-10-08T00:25:11,42.805,6.029,0.015,-0.047,-0.01,104.0,104.0,100.0,13.4,1505.3,325.9,-0.8,1.8,2469.771,13.32,0.049,162.3
2019-10-08T00:28:12,42.805,6.029,-0.016,-0.041,-0.031,104.0,104.0,100.0,13.3,1505.3,328.3,-0.7,1.8,2469.785,13.32,0.044,201.3
2019-10-08T00:31:13,42.805,6.029,-0.034,-0.041,-0.029,104.0,104.0,100.0,13.4,1505.3,323.0,-0.7,1.8,2469.769,13.32,0.053,219.7
2019-10-08T00:34:14,42.805,6.029,-0.016,-0.039,-0.049,103.0,104.0,100.0,13.4,1505.3,325.6,-0.8,1.8,2469.813,13.32,0.042,202.3
2019-10-08T00:37:15,42.805,6.029,0.006,-0.043,-0.019,104.0,104.0,100.0,13.4,1505.3,324.6,-0.7,1.9,2469.798,13.32,0.043,172.1
2019-10-08T00:40:16,42.805,6.029,-0.006,-0.026,-0.008,102.0,104.0,100.0,13.4,1505.3,327.9,-0.7,1.8,2469.791,13.32,0.026,193.0
2019-10-08T00:43:17,42.805,6.029,-0.01,-0.026,-0.046,104.0,105.0,100.0,13.4,1505.3,325.5,-0.8,1.8,2469.777,13.32,0.027,201.0
2019-10-08T00:46:18,42.805,6.029,-0.01,-0.029,-0.022,103.0,104.0,101.0,13.3,1505.3,326.4,-0.7,1.8,2469.819,13.32,0.03,199.0
2019-10-08T00:49:19,42.805,6.029,-0.024,-0.025,-0.044,104.0,104.0,101.0,13.4,1505.3,328.1,-0.8,1.8,2469.826,13.32,0.034,223.8
2019-10-08T00:52:20,42.805,6.029,-0.017,-0.043,-0.025,104.0,105.0,101.0,13.3,1505.3,327.8,-0.7,1.8,2469.841,13.32,0.046,201.6
2019-10-08T00:55:21,42.805,6.029,-0.025,-0.022,-0.032,104.0,104.0,100.0,13.3,1505.3,323.6,-0.7,1.8,2469.831,13.32,0.033,228.7
2019-10-08T00:58:22,42.805,6.029,-0.008,-0.032,-0.048,105.0,104.0,100.0,13.4,1505.3,325.8,-0.7,1.8,2469.811,13.32,0.032,194.0
2019-10-08T01:01:23,42.805,6.029,0.003,-0.024,-0.033,104.0,106.0,100.0,13.4,1505.3,325.6,-0.7,1.8,2469.851,13.32,0.024,172.9
2019-10-08T01:04:24,42.805,6.029,-0.031,-0.001,0.0,104.0,104.0,100.0,13.3,1505.3,324.2,-0.8,1.8,2469.866,13.32,0.031,268.2
2019-10-08T01:07:25,42.805,6.029,-0.022,-0.037,-0.031,103.0,104.0,101.0,13.4,1505.3,327.7,-0.7,1.8,2469.87,13.32,0.043,210.7
2019-10-08T01:10:26,42.805,6.029,0.0,-0.053,-0.051,103.0,105.0,101.0,13.4,1505.3,323.5,-0.7,1.8,2469.88,13.32,0.053,180.0
2019-10-08T01:13:27,42.805,6.029,-0.016,-0.023,-0.016,104.0,106.0,99.0,13.3,1505.3,326.4,-0.7,1.8,2469.888,13.32,0.028,214.8
2019-10-08T01:16:28,42.805,6.029,-0.019,-0.041,-0.006,103.0,105.0,102.0,13.3,1505.3,328.0,-0.7,1.8,2469.892,13.32,0.045,204.9
2019-10-08T01:19:29,42.805,6.029,-0.017,-0.029,-0.027,104.0,104.0,101.0,13.4,1505.3,324.1,-0.7,1.8,2469.901,13.32,0.033,210.4
2019-10-08T01:22:30,42.805,6.029,-0.015,-0.034,-0.045,106.0,104.0,101.0,13.4,1505.3,327.4,-0.7,1.8,2469.897,13.32,0.037,203.8
2019-10-08T01:25:31,42.805,6.029,0.003,-0.024,-0.022,105.0,105.0,100.0,13.3,1505.3,323.3,-0.7,1.8,2469.882,13.32,0.024,172.9
2019-10-08T01:28:32,42.805,6.029,-0.001,-0.039,-0.006,103.0,104.0,100.0,13.4,1505.3,327.9,-0.7,1.9,2469.934,13.32,0.039,181.5
2019-10-08T01:31:33,42.805,6.029,-0.007,-0.04,0.008,104.0,104.0,102.0,13.4,1505.3,326.1,-0.7,1.8,2469.928,13.32,0.04,189.9
2019-10-08T01:34:34,42.805,6.029,-0.046,-0.035,-0.053,103.0,106.0,101.0,13.3,1505.3,323.0,-0.7,1.8,2469.937,13.32,0.057,232.7
2019-10-08T01:37:35,42.805,6.029,0.015,-0.033,0.009,105.0,105.0,100.0,13.4,1505.3,327.4,-0.7,1.8,2469.921,13.32,0.036,155.6
2019-10-08T01:40:36,42.805,6.029,-0.011,-0.05,-0.022,104.0,105.0,100.0,13.3,1505.3,327.2,-0.7,1.8,2469.899,13.32,0.051,192.4
2019-10-08T01:43:37,42.805,6.029,-0.019,-0.025,-0.018,105.0,104.0,100.0,13.3,1505.3,325.8,-0.7,1.8,2469.933,13.32,0.031,217.2
2019-10-08T01:46:38,42.805,6.029,0.007,-0.039,-0.03,104.0,105.0,100.0,13.4,1505.3,324.7,-0.7,1.8,2469.915,13.32,0.039,169.8
2019-10-08T01:49:39,42.805,6.029,0.0,-0.04,-0.008,103.0,105.0,101.0,13.4,1505.3,326.5,-0.7,1.9,2469.896,13.32,0.04,180.0
2019-10-08T01:52:40,42.805,6.029,-0.015,-0.041,-0.027,103.0,105.0,100.0,13.3,1505.3,328.1,-0.7,1.8,2469.896,13.32,0.043,200.1
2019-10-08T01:55:41,42.805,6.029,-0.012,-0.04,0.007,103.0,105.0,102.0,13.3,1505.3,323.2,-0.7,1.9,2469.901,13.32,0.041,196.7
2019-10-08T01:58:42,42.805,6.029,-0.014,-0.037,-0.037,105.0,106.0,102.0,13.4,1505.3,323.5,-0.7,1.8,2469.932,13.32,0.039,200.7
2019-10-08T02:01:43,42.805,6.029,-0.014,-0.049,-0.029,104.0,105.0,100.0,13.4,1505.3,327.2,-0.7,1.8,2469.923,13.32,0.05,195.9
2019-10-08T02:04:44,42.805,6.029,-0.012,-0.047,0.0,105.0,105.0,101.0,13.4,1505.3,326.8,-0.7,1.8,2469.951,13.32,0.048,194.3
2019-10-08T02:07:45,42.805,6.029,-0.021,-0.056,-0.059,104.0,105.0,101.0,13.3,1505.3,327.6,-0.7,1.8,2469.969,13.32,0.059,200.6
2019-10-08T02:10:46,42.805,6.029,-0.032,-0.02,-0.039,103.0,106.0,100.0,13.4,1505.3,325.6,-0.7,1.9,2469.952,13.32,0.037,238.0
2019-10-08T02:13:47,42.805,6.029,-0.006,-0.046,-0.006,105.0,106.0,102.0,13.4,1505.3,326.7,-0.7,1.8,2469.897,13.32,0.046,187.4
2019-10-08T02:16:48,42.805,6.029,-0.025,-0.046,-0.04,104.0,105.0,102.0,13.4,1505.3,325.3,-0.7,1.8,2469.904,13.32,0.052,208.5
2019-10-08T02:19:49,42.805,6.029,0.005,-0.05,-0.018,105.0,105.0,100.0,13.4,1505.3,323.4,-0.7,1.8,2469.93,13.32,0.05,174.3
2019-10-08T02:22:50,42.805,6.029,-0.02,-0.044,0.004,104.0,104.0,101.0,13.4,1505.3,327.2,-0.7,1.8,2469.951,13.32,0.048,204.4
2019-10-08T02:25:51,42.805,6.029,0.002,-0.048,-0.019,105.0,105.0,99.0,13.4,1505.3,328.4,-0.7,1.9,2469.941,13.32,0.048,177.6
2019-10-08T02:28:52,42.805,6.029,0.0,-0.035,0.001,105.0,104.0,101.0,13.3,1505.3,325.7,-0.7,1.8,2469.894,13.32,0.035,180.0
2019-10-08T02:31:53,42.805,6.029,-0.006,-0.02,0.004,104.0,105.0,99.0,13.4,1505.3,326.9,-0.7,1.8,2469.967,13.32,0.02,196.7
2019-10-08T02:34:54,42.805,6.029,-0.03,-0.047,0.022,104.0,105.0,101.0,13.4,1505.3,324.7,-0.7,1.8,2469.944,13.32,0.055,212.6
2019-10-08T02:37:55,42.805,6.029,0.007,-0.026,-0.014,104.0,105.0,101.0,13.4,1505.3,324.3,-0.7,1.8,2469.952,13.32,0.026,164.9
2019-10-08T02:40:56,42.805,6.029,-0.028,-0.039,-0.042,104.0,105.0,100.0,13.3,1505.3,326.6,-0.7,1.8,2469.943,13.32,0.048,215.7
2019-10-08T02:43:57,42.805,6.029,-0.005,-0.042,-0.013,104.0,104.0,100.0,13.4,1505.3,324.1,-0.7,1.8,2469.963,13.32,0.042,186.8
